Theta_e
301 301 301 301 301 300 300 300 300 300 300 299 299 299 298 298 298 297 297 297 297 296 297 297 297 297 297 297 297 297 297 297 298 298 298 298 297 297 296 296 296 296 297 297 297 297 298 298 298 298 299 299 299 299 300 300 300 300 300 300 301 303 305 307 307 308 308 308 309 309 309 307 305 306 307 306 307 307 308 309 310 310 311 312 311
300 300 299 299 299 299 298 298 298 298 297 297 296 296 296 295 295 295 295 295 294 294 294 294 294 295 295 295 295 295 295 295 295 295 296 296 296 296 296 295 295 295 295 295 295 295 296 296 296 297 297 297 298 298 299 299 299 299 299 299 299 300 301 302 304 305 305 306 306 306 305 304 303 302 303 303 304 304 305 305 306 307 308 309 308
298 298 298 297 297 297 296 296 295 295 295 294 294 294 294 293 293 293 293 293 293 292 292 292 292 292 292 293 293 293 293 293 293 293 293 293 293 293 294 294 294 293 293 293 294 294 294 294 294 294 295 295 296 296 297 297 298 298 299 299 299 299 299 299 300 301 302 302 302 303 303 303 301 300 301 301 302 302 303 303 304 304 305 306 306
296 296 295 295 295 294 294 294 293 293 293 293 293 292 292 292 292 292 292 292 292 292 292 291 292 291 292 292 292 292 292 292 292 292 292 292 292 292 292 292 292 292 292 292 292 292 292 292 293 293 293 293 294 294 295 295 296 296 297 297 298 298 298 298 298 299 299 300 300 300 301 301 300 300 300 300 301 301 301 302 302 302 303 304 304
294 293 293 293 293 292 292 292 292 292 292 292 292 291 291 291 291 291 291 291 291 291 291 291 291 291 291 291 291 291 291 291 291 291 291 291 291 291 291 291 291 291 291 291 291 291 291 291 291 292 292 292 292 293 293 293 294 294 295 295 296 297 297 297 298 298 298 298 299 299 299 300 300 300 300 300 300 301 301 301 301 302 302 302 303
292 292 292 292 291 291 291 291 291 291 291 291 291 291 291 291 290 291 291 290 291 290 291 291 291 291 291 291 291 291 291 291 290 290 290 290 290 290 290 290 290 290 290 290 290 290 290 290 290 290 290 291 291 291 292 292 292 293 293 293 294 295 295 296 296 297 297 298 298 298 299 299 299 299 299 300 300 300 301 301 301 301 302 302 302
291 291 291 291 291 290 290 290 290 290 290 290 290 290 290 290 290 290 290 290 290 290 290 290 290 290 290 290 290 290 290 290 290 290 290 290 290 290 289 289 289 289 289 289 289 289 289 289 289 289 289 289 290 290 290 291 291 291 292 292 293 293 293 294 294 295 296 296 297 297 298 298 299 299 299 299 299 300 302 303 302 301 301 301 303
290 290 290 290 290 290 289 289 289 290 290 290 290 290 290 290 290 290 290 290 290 290 290 290 290 290 290 290 290 290 290 290 290 290 290 289 289 289 289 289 289 289 289 289 288 288 289 289 288 288 288 289 289 289 289 289 290 290 291 291 292 292 293 293 293 294 294 295 295 296 296 297 298 298 299 299 299 300 301 301 302 302 302 302 303
289 289 288 288 288 288 288 288 288 289 289 289 289 289 289 289 289 290 289 290 290 290 290 290 290 290 290 290 290 290 290 290 289 289 289 289 289 289 289 288 288 288 288 288 288 288 288 288 288 288 288 288 288 288 289 289 289 289 290 290 291 291 292 292 293 293 294 294 295 295 295 296 297 297 298 299 299 299 300 300 301 302 302 302 301
288 288 287 287 287 287 287 287 287 288 288 288 288 288 288 288 289 289 289 289 289 289 289 289 289 289 289 289 289 289 289 289 289 289 289 289 288 288 288 288 288 288 288 288 288 287 287 287 287 287 287 288 288 288 288 288 289 289 289 290 290 290 291 291 292 292 293 294 294 295 295 295 296 296 297 298 298 299 299 300 300 300 301 301 301
287 287 287 287 287 287 287 287 287 287 287 287 287 287 287 287 288 288 288 288 288 288 289 289 289 289 289 289 289 289 289 288 288 288 288 288 288 288 288 288 287 287 287 287 287 287 287 287 287 287 287 287 287 287 287 287 288 288 288 289 289 289 290 291 291 292 293 293 294 294 294 295 295 295 296 297 297 298 298 298 299 300 301 301 302
287 287 287 286 286 286 287 287 287 287 286 286 286 287 287 286 287 287 287 287 288 288 288 288 288 288 288 288 288 288 288 288 288 288 287 287 287 287 287 287 287 287 287 287 287 287 287 287 287 287 286 286 286 286 286 286 286 287 287 287 288 288 289 290 291 291 292 293 293 293 294 294 294 294 295 295 296 296 297 297 298 299 300 301 301
287 286 286 286 286 286 287 287 287 287 286 286 286 286 286 286 286 286 286 287 287 287 287 287 287 287 287 287 287 287 287 287 287 287 287 287 287 287 287 287 287 287 287 286 286 286 286 286 286 286 286 286 286 286 286 286 286 286 286 286 286 287 287 288 289 290 291 291 292 293 293 293 294 294 294 295 295 295 295 296 296 297 298 298 299
287 286 286 286 287 287 287 287 287 287 287 287 286 286 286 286 286 286 286 286 286 286 286 286 286 286 286 286 287 287 287 287 287 287 287 287 287 286 286 286 286 286 286 286 286 286 286 286 286 286 286 286 286 286 286 286 286 286 286 286 286 286 286 286 287 288 289 290 291 292 292 292 293 293 294 294 295 295 295 295 295 295 296 297 297
287 287 287 287 287 287 287 287 287 287 287 287 287 287 286 286 286 286 286 286 285 286 286 286 286 286 286 286 286 286 286 286 286 286 286 286 286 286 286 286 286 286 286 286 286 286 286 286 285 285 285 285 285 285 285 286 286 286 286 286 286 286 286 286 286 287 287 288 289 290 290 291 292 292 293 293 294 295 295 295 295 295 296 296 297
287 287 287 287 287 287 287 287 287 287 287 287 287 287 286 286 286 286 286 285 285 285 285 285 285 285 285 286 286 286 286 286 286 286 286 286 286 286 286 286 286 285 285 285 285 285 285 285 285 285 285 285 285 285 285 285 285 285 285 285 285 286 285 285 286 286 286 286 287 288 289 289 290 291 291 292 293 294 294 295 295 296 295 295 296
287 287 287 287 287 287 287 287 287 287 287 287 287 286 286 286 286 286 286 285 285 285 285 285 285 285 285 285 285 285 285 285 286 286 286 286 285 285 285 285 285 285 285 285 285 285 285 285 285 285 285 285 285 285 285 285 285 285 285 285 285 285 285 285 285 285 285 285 286 286 286 287 288 290 290 291 292 293 294 294 295 296 295 295 295
288 288 287 287 287 287 287 287 287 287 287 287 287 286 286 286 286 286 285 285 285 285 285 285 285 285 285 285 285 285 285 285 285 285 285 285 285 285 285 285 285 285 285 285 285 285 285 285 285 285 285 285 285 285 285 285 285 285 285 285 285 285 285 285 285 285 285 285 285 285 285 286 287 288 289 290 291 292 293 294 294 294 295 295 295
289 288 288 288 287 287 287 287 287 287 286 286 286 286 286 286 285 285 285 285 285 285 285 285 285 285 285 285 285 285 285 285 285 285 285 285 285 285 285 285 285 285 285 285 285 285 285 285 285 285 285 285 285 285 285 285 285 285 285 285 285 285 285 285 285 285 285 285 285 285 285 285 286 286 288 289 290 291 292 293 294 294 294 295 295
290 289 289 289 288 288 287 287 286 286 286 286 286 286 286 285 285 285 285 285 285 285 285 285 285 285 285 285 285 285 285 285 285 285 285 285 285 285 285 285 285 285 285 285 285 285 285 285 285 285 285 285 285 284 284 284 284 284 284 284 284 284 284 284 284 284 284 285 285 285 285 285 285 285 286 287 289 290 292 293 293 293 293 294 295
289 289 289 288 288 288 288 287 287 286 286 286 286 285 285 285 285 285 285 285 285 285 285 285 285 285 285 285 284 284 284 284 284 284 284 284 284 284 284 285 285 285 285 285 285 285 285 285 285 285 284 284 284 284 284 284 284 284 284 284 284 284 284 284 284 284 284 284 284 285 285 285 285 285 285 286 287 289 291 292 292 293 293 293 294
288 288 288 288 288 287 287 287 287 286 286 285 285 285 285 285 285 285 285 284 284 284 284 284 284 284 284 284 284 284 284 284 284 284 284 284 284 284 284 284 284 284 284 284 284 284 284 285 284 284 284 284 284 284 284 284 284 284 284 283 283 283 283 283 283 283 284 284 284 284 284 284 285 285 285 285 285 287 289 291 291 292 292 293 293
287 287 287 287 287 287 287 286 286 285 285 285 285 285 285 285 285 284 284 284 284 284 284 284 284 284 283 283 283 283 284 284 283 283 283 283 283 284 284 284 284 284 284 284 284 284 284 284 284 284 284 284 284 284 284 284 284 284 283 283 283 283 283 283 283 283 283 283 283 284 284 284 284 284 285 285 285 285 287 289 291 291 292 292 293
286 286 286 286 286 286 286 286 285 285 284 284 284 284 284 284 284 284 284 284 284 284 283 283 283 283 283 283 283 283 283 283 283 283 283 283 283 283 283 283 283 283 284 284 284 284 284 284 284 284 283 283 283 283 283 283 283 283 283 283 283 283 283 283 283 283 283 283 283 283 283 284 284 284 284 284 284 285 285 287 289 291 291 291 292
285 285 285 285 285 285 285 285 284 284 284 284 284 284 284 284 284 284 283 283 283 283 283 283 282 282 282 282 282 283 283 283 283 283 283 283 283 283 283 283 283 283 283 283 283 283 283 283 283 283 283 283 283 283 283 283 283 283 283 283 283 283 283 283 283 283 283 283 283 283 283 283 283 283 284 284 284 284 285 286 288 290 291 291 291
284 284 284 284 285 285 284 284 284 283 283 283 283 283 283 283 283 283 283 283 283 282 282 282 282 282 282 282 282 283 283 283 283 283 283 283 283 283 283 283 283 283 283 283 283 283 283 283 283 283 283 283 283 283 283 283 283 283 283 283 283 282 282 282 282 282 282 282 282 283 283 283 283 283 283 284 284 284 285 286 287 289 290 290 291
283 283 283 283 283 283 284 283 283 283 283 283 283 283 283 283 283 282 282 282 282 282 282 281 281 282 282 282 282 282 282 282 282 282 282 282 282 282 282 282 282 282 282 282 282 282 282 282 282 282 283 283 283 282 282 282 283 282 282 282 282 282 282 282 282 282 282 282 282 282 282 283 283 283 283 283 284 284 285 286 288 289 289 289 290
281 281 282 282 282 282 282 283 283 283 283 283 283 283 283 283 283 282 282 282 282 281 281 281 281 281 281 281 281 281 281 281 281 281 281 281 281 282 282 282 282 282 282 282 282 282 282 282 282 282 282 282 282 282 282 282 282 282 282 282 282 282 282 282 281 281 281 281 281 281 282 282 282 283 283 283 284 284 285 286 287 288 288 288 289
280 281 281 281 282 282 282 282 282 282 282 282 282 283 283 283 282 282 281 281 281 281 281 281 281 281 281 281 281 281 281 281 281 281 281 281 281 281 281 281 281 281 281 281 282 282 282 282 282 282 282 282 282 282 282 282 282 282 282 282 282 282 282 282 281 281 281 281 281 281 281 282 282 282 283 283 284 284 285 286 287 287 288 288 288
279 280 280 281 281 281 281 281 281 282 282 282 281 281 281 281 281 281 281 281 281 281 281 281 281 281 280 280 280 280 280 280 280 280 280 280 280 280 281 281 280 280 281 281 281 281 281 281 281 281 281 282 282 282 282 282 282 282 282 282 282 281 281 281 281 281 281 281 281 281 281 281 282 282 283 283 284 284 285 285 286 286 287 287 288
278 278 279 279 280 280 280 280 280 281 281 281 281 281 281 281 280 280 280 280 280 281 281 280 280 280 280 280 280 280 280 280 280 280 280 280 280 280 280 280 280 280 280 280 280 280 280 280 280 281 281 281 281 281 281 281 281 281 281 281 281 281 281 281 281 281 281 281 281 282 282 282 282 282 282 283 283 283 284 284 284 285 285 286 286
277 277 278 278 278 278 279 279 279 279 279 280 280 280 280 280 280 280 280 279 280 280 280 279 279 279 279 279 279 279 279 279 279 279 279 279 279 279 279 279 279 280 280 280 279 280 280 280 280 280 280 280 280 280 280 280 280 280 281 281 281 281 281 281 281 281 281 281 282 282 282 282 282 282 282 282 282 282 282 282 283 283 284 284 284
276 276 277 277 277 277 278 278 278 278 278 278 279 279 279 279 279 279 279 279 279 279 279 278 278 278 278 278 278 278 278 278 279 279 279 279 279 279 278 278 279 279 279 279 279 279 279 279 279 279 279 279 280 280 280 280 280 280 280 280 280 280 280 281 281 281 281 281 281 282 282 282 282 281 281 281 281 281 281 281 282 283 283 283 283
275 276 276 276 276 277 277 277 277 277 277 278 278 278 278 278 278 278 278 278 278 278 278 277 277 277 277 277 277 277 277 277 278 278 278 278 278 278 278 278 278 278 278 278 278 278 278 278 278 278 279 279 279 279 279 279 279 280 280 280 280 280 280 280 280 280 280 281 281 281 281 281 281 280 280 280 280 280 280 281 281 282 282 282 282
275 275 276 276 276 276 276 276 276 276 276 276 277 277 277 277 277 277 277 277 277 276 276 276 276 276 276 276 276 276 276 276 277 277 277 277 277 277 277 277 277 277 277 277 277 277 277 277 278 278 278 278 278 279 279 279 279 279 279 279 279 279 279 280 280 280 280 280 280 280 280 280 280 279 279 279 279 279 279 280 280 281 281 281 282
274 274 275 275 275 275 275 275 275 275 275 275 276 276 276 276 276 276 276 276 276 275 275 275 275 275 275 276 276 276 276 276 276 276 276 276 276 276 276 276 276 276 277 277 277 277 277 277 277 277 277 278 278 278 278 278 278 278 278 278 278 278 279 279 279 279 279 279 279 279 279 279 279 279 278 278 278 278 278 279 279 280 280 280 281
273 273 274 274 274 274 275 275 274 274 274 274 275 275 275 275 275 275 275 275 275 275 275 275 274 274 274 275 275 275 275 275 275 275 275 275 276 276 275 276 276 276 276 276 276 276 276 276 276 276 277 277 277 277 277 277 277 277 277 277 277 277 277 277 278 278 278 278 279 278 278 278 278 278 277 277 278 278 278 278 278 279 280 280 280
272 272 273 273 273 273 274 274 274 273 273 273 274 274 274 274 274 274 274 274 274 274 274 274 274 274 274 274 274 274 274 274 274 274 274 275 275 275 275 275 275 275 275 275 275 275 275 275 275 275 276 276 276 276 276 276 276 276 277 277 277 277 277 277 277 277 277 277 277 278 277 278 277 277 276 276 277 277 277 278 278 278 279 279 280
271 271 272 272 272 272 272 272 272 272 272 272 272 273 273 273 273 273 273 273 273 273 273 273 273 273 273 273 273 273 273 273 273 274 274 274 274 274 274 274 274 274 274 274 274 274 274 274 274 274 274 274 275 275 275 275 275 276 276 276 276 276 276 276 276 276 276 276 276 277 277 277 276 276 276 276 276 277 277 277 278 277 278 279 279
270 270 271 271 271 271 271 271 271 271 271 271 271 271 271 272 272 272 272 271 272 272 272 272 272 272 272 273 273 273 273 273 273 273 273 273 273 273 273 273 273 273 273 273 273 273 273 273 274 274 274 274 274 274 274 274 274 275 275 275 275 275 275 275 275 275 275 275 275 275 276 275 275 275 275 275 276 276 277 277 277 277 277 278 279
269 269 269 270 270 270 270 270 270 270 270 270 270 270 270 271 271 271 270 270 270 270 271 271 271 271 271 271 272 272 272 272 272 272 272 272 272 272 272 272 272 272 272 272 272 272 273 273 273 273 273 273 273 273 273 273 273 274 274 274 274 274 274 274 274 274 274 274 274 274 275 274 274 274 275 275 276 276 276 276 277 277 277 278 278
268 268 268 268 269 269 269 269 269 269 269 269 269 269 269 270 270 270 270 269 269 269 269 269 269 269 270 270 270 270 270 270 271 271 271 271 271 271 271 271 271 271 271 271 271 272 272 272 272 272 272 272 272 272 272 272 272 273 273 273 273 274 274 274 274 274 274 274 274 274 274 274 274 274 275 275 275 275 276 276 277 277 277 277 278
266 267 267 267 267 267 268 268 268 268 268 268 268 269 269 269 269 269 269 268 268 268 268 268 268 268 269 269 269 269 269 269 269 270 270 270 270 270 270 270 270 270 270 270 270 271 271 271 271 271 271 271 271 271 271 271 271 272 272 272 273 273 273 273 273 273 273 273 273 273 273 273 274 274 274 274 274 275 276 276 276 276 276 277 278
265 266 266 266 266 266 267 267 267 267 267 267 268 268 268 268 268 268 268 267 267 267 267 267 267 268 268 268 268 268 268 268 268 269 269 269 269 269 269 270 270 270 270 270 270 270 270 270 270 270 270 270 270 270 270 270 270 270 271 271 272 272 272 272 272 272 272 272 272 272 273 273 273 273 273 273 274 275 275 275 275 276 276 277 277
265 265 265 265 266 266 266 266 266 266 266 267 267 267 267 267 267 267 266 266 266 266 266 267 267 267 267 267 267 267 267 267 268 268 268 268 268 268 268 268 268 268 269 269 269 269 269 269 269 269 269 269 269 269 269 269 269 270 270 270 271 271 271 271 271 271 271 271 272 272 272 272 272 272 273 273 274 274 274 275 275 276 276 277 278
264 265 265 265 265 265 265 266 266 266 266 266 266 266 266 266 266 266 266 265 265 265 266 266 267 267 267 267 267 267 267 267 267 267 267 267 267 267 267 267 267 267 267 268 268 268 268 268 268 268 268 268 268 268 269 269 269 269 269 270 270 270 271 271 271 271 271 271 271 271 271 271 271 272 273 273 273 273 274 275 275 276 276 277 278
264 264 264 264 265 265 265 265 265 265 265 265 266 265 265 265 265 265 265 265 265 265 266 266 266 266 266 266 266 267 267 267 267 267 267 267 266 266 266 266 266 267 267 267 267 267 267 267 267 267 267 268 268 268 268 268 268 269 269 269 270 270 270 270 270 270 270 270 270 270 270 271 272 272 272 272 273 274 274 275 276 276 277 277 278
264 264 264 264 264 264 265 265 265 265 265 265 265 265 265 265 265 265 265 265 265 265 265 265 266 266 266 266 266 266 266 266 266 266 266 266 266 266 266 266 266 266 266 266 266 266 266 266 267 267 267 267 267 267 268 268 268 268 268 269 269 269 269 269 270 270 270 270 269 270 270 271 272 272 272 272 273 274 274 275 276 277 277 278 279
264 264 264 264 264 264 264 264 264 265 265 265 264 264 264 264 264 264 264 265 265 265 265 265 265 265 265 265 265 265 265 266 266 266 266 266 266 266 266 266 266 266 266 266 266 266 266 266 266 266 266 267 267 267 267 267 267 268 268 268 269 269 269 269 269 269 269 269 270 270 270 271 272 272 272 273 273 274 275 275 276 277 277 278 279
264 264 264 263 263 264 264 264 264 264 264 264 264 264 264 264 264 264 264 264 264 264 265 265 265 265 265 265 265 265 265 265 265 265 265 265 265 265 265 265 265 266 266 266 266 266 266 266 266 266 266 266 266 266 267 267 267 267 267 268 268 269 269 269 269 269 269 269 270 270 270 271 272 272 272 273 274 274 275 276 276 276 277 278 279
263 263 263 263 263 263 264 264 264 264 264 264 264 264 264 264 264 264 264 264 264 264 264 264 264 264 264 264 265 265 265 265 265 265 265 265 265 265 265 265 265 265 265 265 265 265 265 265 265 266 266 266 266 266 266 266 266 267 267 267 268 268 268 269 269 269 269 269 269 270 270 271 272 272 272 273 274 274 275 276 276 277 277 278 279
Wind_Speed
29 28 28 28 27 27 26 25 24 23 22 21 20 20 19 19 18 17 15 14 13 12 11 10 9 8 8 7 6 6 6 6 7 8 8 8 8 8 7 7 8 7 8 8 8 8 9 9 9 9 9 10 10 10 10 11 12 12 12 14 14 14 14 14 18 22 20 18 19 21 23 26 28 28 30 33 34 35 35 35 34 34 34 33 32
31 30 30 29 29 28 27 26 25 24 23 21 20 19 18 17 15 14 13 12 11 10 9 8 8 7 7 6 6 6 5 5 5 6 6 7 8 9 9 9 9 9 9 9 9 10 10 10 11 11 11 11 11 11 12 12 12 13 13 14 15 14 15 15 17 19 20 19 19 21 22 23 25 27 29 32 34 36 37 38 37 36 35 35 34
32 31 31 30 29 27 26 25 23 22 21 19 18 17 17 16 14 13 12 12 11 11 10 9 8 7 7 6 5 4 4 3 3 3 3 4 4 5 6 7 8 8 9 9 10 10 10 11 11 12 12 13 12 12 13 13 14 14 14 15 16 16 16 17 18 19 20 21 20 21 21 21 24 26 27 29 32 34 36 38 38 37 36 35 34
32 30 29 28 27 26 24 23 22 21 20 19 18 17 17 16 15 15 14 13 13 12 11 10 9 8 7 6 5 5 4 3 2 1 1 1 1 2 2 3 4 5 7 7 8 9 10 10 11 12 12 13 13 14 14 15 15 16 16 16 17 18 18 19 20 20 21 22 22 22 22 22 24 25 26 28 30 31 33 35 36 37 36 34 32
30 28 27 26 26 25 24 23 22 21 20 19 19 19 18 18 17 16 15 14 14 12 11 10 9 8 7 6 6 5 5 5 4 4 4 4 4 4 4 4 5 5 6 7 7 8 9 9 10 11 12 12 13 14 15 15 16 16 17 18 18 20 20 21 22 22 23 23 24 25 24 24 25 26 27 28 30 31 31 32 33 35 35 34 32
28 27 27 26 26 25 24 23 22 21 21 21 20 20 19 18 18 17 15 14 13 12 11 10 9 8 7 6 5 5 5 5 5 6 6 6 6 6 7 7 7 7 7 8 8 8 9 9 10 11 11 12 13 14 15 15 16 17 18 19 19 20 21 22 23 24 25 25 25 25 24 24 25 27 27 27 31 32 31 32 32 31 32 33 32
28 27 27 27 26 25 25 24 23 22 22 21 21 20 19 18 17 15 14 13 12 11 9 8 8 7 6 5 5 5 5 5 5 6 7 7 7 8 8 9 9 9 9 9 9 10 10 10 11 11 12 13 13 14 15 16 16 17 17 19 20 20 22 23 23 24 26 27 27 26 25 24 24 26 27 28 30 29 27 29 32 33 32 32 32
28 28 28 27 26 25 25 24 23 22 22 21 20 19 18 16 15 14 13 11 10 9 8 7 6 5 4 4 4 4 4 4 5 6 6 7 8 8 9 9 10 10 10 11 11 11 11 11 11 12 12 12 13 14 15 16 17 17 17 18 19 20 21 22 23 24 26 27 28 27 26 24 23 25 26 27 28 28 27 28 31 33 32 33 32
28 27 26 26 25 25 24 23 22 21 20 19 18 17 16 15 14 13 11 10 9 8 7 6 5 4 3 3 2 3 3 3 5 5 6 7 8 8 9 10 10 10 11 11 11 12 12 12 12 12 12 12 12 13 14 15 16 17 17 18 19 20 21 22 23 24 25 26 27 27 26 25 24 25 25 24 25 28 29 29 29 29 31 35 35
27 26 25 25 24 23 23 22 21 20 19 18 17 16 15 14 13 12 10 9 8 7 6 5 4 3 2 2 1 2 2 3 4 5 6 7 7 8 8 9 10 10 10 11 11 12 12 12 12 12 12 12 13 13 13 13 15 16 17 18 19 20 21 22 23 23 25 26 27 26 26 27 26 25 25 25 25 26 27 27 29 31 32 35 38
25 25 24 24 23 22 22 20 19 19 17 16 15 14 13 12 11 10 9 8 7 6 5 5 3 2 2 1 1 1 2 3 4 5 6 6 7 7 8 8 8 9 10 10 11 12 12 12 13 13 14 14 14 14 14 14 15 15 16 16 17 19 20 22 23 23 24 25 26 26 27 28 28 26 24 25 25 27 28 28 29 31 30 32 36
23 23 23 23 22 21 20 18 17 16 15 14 13 12 11 10 9 7 6 6 5 4 4 3 2 2 2 1 0 1 2 3 4 5 5 6 6 6 7 7 7 8 9 9 10 11 11 12 13 14 15 15 16 16 16 17 17 17 17 17 18 18 20 21 23 23 24 25 27 27 28 28 29 27 26 27 27 28 29 28 28 29 29 29 32
20 21 21 20 19 19 17 17 16 14 13 12 11 10 9 8 7 6 5 4 3 3 2 1 1 1 1 1 1 2 2 3 4 5 5 6 6 6 6 6 6 7 7 8 9 9 10 11 12 13 14 15 16 17 18 19 19 19 20 20 20 20 19 20 22 23 25 26 27 28 28 28 30 30 29 29 31 32 32 32 31 31 32 32 33
18 18 18 17 17 16 16 15 14 13 13 12 10 9 8 7 6 5 4 3 2 1 1 0 1 2 2 2 3 3 3 4 4 5 6 6 7 6 6 6 6 6 7 7 8 8 9 10 11 12 13 14 16 17 18 20 20 21 22 22 22 22 21 21 22 23 24 25 27 29 29 29 31 32 31 30 32 33 34 36 36 36 37 38 38
16 16 15 14 14 14 13 13 13 12 12 11 10 9 7 6 5 4 3 2 1 1 1 1 2 3 3 4 4 5 5 6 6 7 7 7 7 7 6 6 6 6 6 6 7 8 8 9 10 11 12 14 15 17 19 20 21 22 22 23 23 23 23 23 23 23 23 24 26 28 30 30 31 33 32 31 31 32 34 36 37 38 39 40 40
15 14 13 12 12 12 11 11 11 11 10 10 9 8 7 5 4 3 2 1 1 1 2 3 4 4 5 5 6 7 7 8 8 9 9 9 8 7 7 6 6 6 5 6 6 7 7 8 9 10 12 13 15 17 19 20 21 22 23 23 24 24 24 25 25 25 25 25 26 27 28 29 30 32 33 33 33 33 34 35 36 37 39 40 39
12 12 11 11 10 10 9 9 9 8 8 8 7 6 6 5 3 2 1 1 1 2 3 5 5 6 6 7 8 9 9 10 11 11 12 11 10 9 8 8 8 7 6 6 7 7 7 8 9 10 11 13 15 17 19 21 22 23 24 25 25 25 26 26 27 27 28 29 29 29 29 29 30 30 31 32 33 34 35 36 35 33 35 38 37
10 9 9 8 8 8 7 7 7 7 7 7 6 5 5 5 4 3 3 3 3 3 4 6 7 8 9 10 11 11 12 13 13 13 14 13 11 11 11 10 10 9 8 8 8 9 9 10 10 11 12 13 15 17 19 20 22 23 24 26 27 27 27 28 29 29 30 31 32 32 33 32 32 32 31 31 31 32 34 37 34 29 30 33 34
8 8 8 7 7 7 7 7 7 7 7 7 6 5 5 5 5 4 4 4 4 5 6 7 8 10 12 13 13 14 15 15 16 16 15 14 13 13 13 13 12 11 10 10 10 10 11 12 13 14 15 15 17 18 19 20 22 23 24 26 28 28 28 30 31 32 32 33 33 34 34 34 34 34 33 32 31 30 31 35 34 27 26 28 29
7 8 8 7 7 7 7 8 8 8 7 8 7 7 6 6 6 5 5 5 6 6 7 8 10 11 13 15 16 16 17 17 17 17 16 16 15 15 15 14 14 13 12 12 12 12 13 14 15 16 17 18 18 19 19 21 22 23 24 25 27 28 29 30 31 32 34 34 34 35 35 35 35 35 35 34 33 32 31 33 34 30 27 27 28
7 7 7 7 7 7 8 9 9 9 9 9 9 8 8 7 7 7 7 7 8 8 9 10 11 13 15 16 17 18 18 18 18 17 17 17 17 16 16 15 15 15 14 14 14 14 15 15 16 17 18 19 19 19 20 20 21 22 23 24 26 28 30 31 32 33 34 35 36 36 36 36 36 36 36 35 34 34 33 34 35 35 32 30 30
6 6 6 6 7 7 8 9 10 11 11 11 10 10 9 9 9 8 9 9 9 10 10 11 13 14 16 17 19 19 19 19 18 18 18 18 17 17 17 16 16 16 16 15 15 16 16 17 18 18 19 19 19 19 19 19 20 21 22 24 26 28 29 31 33 34 35 36 37 37 37 37 38 37 37 37 35 35 35 35 36 37 36 35 33
6 6 6 6 7 7 8 9 10 11 11 11 11 11 10 10 10 10 10 11 11 11 12 13 14 15 16 18 19 19 19 18 18 18 18 18 18 18 17 17 16 17 17 17 17 17 18 18 19 19 20 20 20 20 20 20 21 22 23 25 26 28 29 30 31 32 34 35 36 37 37 37 38 38 38 38 37 36 37 37 37 37 38 38 36
6 6 6 6 7 8 8 9 9 10 11 11 11 12 11 11 11 12 12 12 12 12 13 14 14 15 16 17 18 19 18 18 17 18 18 18 18 18 18 18 18 18 18 18 18 19 19 19 19 19 20 20 21 21 21 22 22 23 24 25 27 28 29 29 30 31 32 33 34 36 37 37 38 38 39 39 39 38 38 38 38 38 39 40 39
8 7 7 6 6 6 6 7 8 9 10 11 11 11 11 11 12 12 12 12 12 13 13 14 14 15 16 17 18 18 18 17 18 18 19 19 19 19 19 19 19 19 19 19 19 19 18 18 19 19 20 21 22 23 23 23 23 23 24 25 27 28 28 29 30 31 32 33 33 35 36 37 37 38 39 40 40 40 40 39 39 40 40 42 42
9 8 8 7 5 5 4 5 6 7 9 10 10 10 11 11 11 12 12 12 12 13 13 14 15 16 16 17 18 18 18 17 18 19 19 19 19 20 20 19 19 19 19 19 19 19 18 18 19 20 20 21 22 23 24 24 23 24 24 25 27 28 28 29 30 30 31 32 33 34 36 37 38 39 39 39 40 40 40 40 41 41 41 42 44
7 6 5 5 4 4 4 5 6 7 9 9 10 11 11 11 11 11 12 12 13 14 14 15 16 16 16 17 17 18 17 17 18 19 19 19 19 19 19 19 19 18 18 18 19 18 18 18 19 20 21 22 22 22 23 23 23 23 24 25 25 26 27 28 28 29 30 31 32 34 35 36 38 39 39 39 40 39 38 39 40 40 40 41 44
5 4 3 2 3 4 5 6 7 8 9 10 11 11 12 12 13 12 13 14 15 15 16 16 16 16 16 16 16 16 16 16 17 17 17 18 18 18 19 18 18 18 18 18 19 19 19 19 20 21 21 22 22 22 22 22 23 23 23 24 24 25 26 27 27 28 29 30 32 34 35 36 37 38 39 39 39 39 37 37 38 39 39 37 39
4 3 2 2 3 4 5 7 8 9 10 10 12 13 13 13 13 13 14 15 15 16 17 17 17 16 16 16 16 17 16 16 16 16 17 17 17 18 18 18 18 18 18 19 19 20 20 20 21 21 22 22 22 23 23 24 24 24 24 24 24 25 26 27 28 29 30 31 33 35 36 36 37 38 38 39 39 39 37 36 37 38 38 34 33
3 2 2 2 3 4 5 7 8 9 10 11 12 13 14 14 13 13 14 15 16 17 18 17 16 16 16 16 17 17 17 16 16 16 17 17 17 18 19 18 18 19 20 20 19 19 20 21 21 21 22 22 23 24 25 26 26 25 25 25 25 26 27 28 29 30 31 33 34 35 36 36 37 37 37 38 38 38 37 36 36 34 32 30 31
2 1 1 2 3 4 6 7 8 10 11 11 12 13 14 14 14 14 15 15 15 17 17 16 16 17 17 17 16 16 17 18 18 17 17 18 18 19 19 18 18 20 20 20 19 20 21 21 21 22 22 23 24 25 25 26 26 26 26 26 26 27 28 29 29 30 32 33 35 36 36 36 36 37 37 37 37 37 36 34 31 29 30 32 36
2 1 1 1 2 4 5 7 8 9 10 11 12 13 14 15 15 15 15 15 16 16 16 16 16 17 18 18 17 16 17 18 18 18 18 18 19 19 18 17 18 20 20 19 20 20 21 21 21 22 22 23 24 25 25 25 26 26 26 27 27 28 28 29 29 30 31 32 34 35 36 36 36 37 37 36 36 36 33 30 30 34 37 40 42
2 2 2 2 3 4 5 6 8 9 10 11 12 12 13 14 15 15 15 15 15 16 16 16 16 17 17 18 18 18 17 17 18 18 18 19 19 19 18 18 19 19 19 19 19 20 20 20 21 21 22 23 23 24 25 25 25 26 26 27 27 28 29 29 30 31 31 32 33 34 35 35 36 37 38 37 36 34 32 32 35 39 41 42 43
3 3 3 4 4 5 5 6 8 9 10 11 11 12 12 13 14 14 14 14 15 16 16 16 16 16 16 17 17 18 17 17 17 18 18 18 18 18 17 17 18 19 19 19 19 19 19 20 20 20 21 22 22 23 24 24 25 25 26 26 27 28 29 30 30 31 32 33 33 34 34 35 36 37 37 38 37 36 35 36 38 39 39 41 43
3 4 4 5 5 6 6 7 8 9 10 10 11 11 12 12 12 13 13 14 14 14 15 15 14 15 15 16 16 16 17 17 17 17 17 17 17 16 16 17 17 18 18 18 18 19 19 19 19 19 20 21 21 22 23 23 24 25 25 26 27 28 29 30 31 32 33 33 34 34 35 35 36 36 37 38 38 37 38 39 39 39 40 41 42
4 4 4 5 5 6 7 7 8 8 9 9 10 11 11 11 11 12 12 13 13 13 12 13 12 12 13 14 14 14 15 15 16 16 16 16 16 15 15 16 16 16 17 18 18 18 18 19 19 19 20 21 21 22 22 23 23 24 25 26 27 28 29 30 31 32 33 33 34 34 35 35 36 36 37 38 38 38 39 40 40 41 41 40 41
4 4 4 5 5 6 6 7 8 8 8 9 9 10 10 10 10 10 10 11 12 11 11 11 10 10 10 11 11 12 12 13 14 14 15 15 16 16 16 16 16 16 17 17 18 18 18 18 19 19 20 21 21 22 22 23 23 24 25 25 26 28 29 30 31 32 33 34 34 35 35 36 36 36 37 38 39 39 40 40 40 42 42 41 40
3 4 4 5 5 6 6 7 7 7 7 8 8 8 8 8 8 8 8 8 9 9 10 10 9 9 9 9 9 9 10 11 11 12 13 13 14 15 15 16 16 16 17 17 18 19 18 19 19 20 20 21 22 22 23 23 24 24 25 26 27 28 29 29 30 31 32 34 35 35 36 36 37 37 38 39 40 40 41 41 41 42 43 42 41
3 3 4 4 5 5 5 5 6 6 6 6 6 6 6 6 6 5 6 6 7 7 8 8 8 8 9 9 9 9 10 10 10 10 11 12 13 14 15 15 16 17 17 18 19 20 20 20 20 20 21 22 22 23 23 24 24 25 25 26 27 28 29 30 31 31 32 34 35 35 36 36 37 38 39 40 41 41 41 41 41 42 43 43 43
3 3 3 3 4 4 4 4 5 5 5 5 5 5 5 5 4 4 4 5 5 6 6 7 7 7 8 9 10 10 11 11 12 12 13 13 14 15 16 16 17 18 18 19 20 21 21 21 22 22 22 23 23 24 24 24 25 26 26 26 27 28 29 30 30 31 33 34 35 36 36 37 38 39 40 41 41 41 41 42 43 43 43 43 43
3 3 3 3 4 4 4 4 4 4 4 4 4 4 3 3 3 4 3 3 4 5 6 6 7 8 8 9 10 11 12 13 14 15 15 16 16 17 17 18 18 19 20 20 21 22 22 23 23 23 23 24 24 25 25 25 26 26 27 27 28 29 29 30 30 31 33 34 35 36 36 37 38 40 41 41 41 41 42 43 43 44 44 44 44
3 3 3 3 3 3 3 3 3 3 3 3 3 3 3 2 3 3 3 3 4 5 6 7 7 8 9 10 11 11 12 13 14 15 16 16 17 18 18 19 19 20 21 22 23 23 24 24 24 24 24 24 25 25 26 26 26 27 28 28 29 29 30 30 31 32 33 35 35 36 37 38 39 40 41 42 43 43 43 44 44 44 46 46 45
2 3 3 3 3 3 3 3 3 2 2 2 2 2 2 2 3 3 3 4 4 5 5 6 7 8 9 10 11 11 12 13 14 14 15 16 17 18 18 19 20 21 21 22 23 24 25 25 25 25 25 25 25 26 26 26 27 27 28 29 29 29 30 30 31 32 33 35 36 37 38 38 39 41 42 43 43 44 44 44 45 46 47 47 46
2 2 2 2 2 2 2 2 2 2 1 2 2 2 2 2 3 3 4 4 5 5 6 6 7 8 9 10 10 11 12 13 14 14 15 16 17 17 18 19 19 20 21 22 23 24 25 26 26 26 25 25 25 25 25 25 26 27 28 28 29 29 29 30 31 32 33 35 36 37 38 39 40 41 43 43 44 44 45 45 46 47 47 47 47
1 1 1 1 1 1 1 1 1 2 2 2 2 2 3 3 4 4 5 5 5 6 7 7 8 9 10 10 11 12 12 13 14 15 16 17 17 18 18 19 19 20 21 21 22 23 24 25 26 27 26 26 25 25 25 24 25 25 26 27 28 29 29 30 31 32 32 34 36 37 38 39 40 42 43 43 43 45 46 46 46 47 47 47 47
2 1 1 1 1 1 1 2 2 2 2 3 3 3 4 4 4 5 5 6 6 7 8 8 9 10 10 11 12 13 13 14 15 16 16 17 18 19 19 20 20 20 21 21 22 23 23 24 25 26 27 27 26 26 25 25 24 25 25 26 27 28 29 29 30 31 32 33 34 35 37 39 41 42 42 43 43 45 46 46 46 47 47 46 46
2 2 2 2 2 2 2 2 2 3 3 3 3 4 4 5 5 6 6 7 8 8 9 10 10 11 11 12 12 13 14 15 15 16 17 18 19 19 20 21 21 21 21 21 22 23 23 24 24 25 26 27 27 27 26 25 25 25 25 25 26 27 28 29 30 31 31 31 33 35 37 39 41 42 42 42 43 44 46 46 46 46 46 45 44
3 3 3 3 3 4 4 4 4 4 4 4 4 5 5 6 6 7 7 8 9 9 10 10 11 11 12 13 13 14 14 15 16 17 17 18 19 20 21 21 22 22 22 22 22 22 23 23 24 25 25 26 26 27 27 26 26 25 25 25 25 26 27 28 29 30 30 31 33 35 36 38 40 41 42 42 43 44 45 46 45 45 45 44 42
5 5 5 5 5 5 5 5 5 5 5 5 5 6 6 7 7 8 8 9 9 10 10 11 11 12 13 13 14 15 15 16 17 17 18 19 20 21 22 22 23 23 23 23 23 23 23 23 23 24 25 25 25 26 26 26 26 26 26 25 25 25 26 27 27 28 29 31 33 35 36 37 39 40 41 42 43 43 44 44 44 44 43 43 41
6 6 6 6 6 6 6 6 6 6 6 6 6 7 7 8 8 8 9 9 10 10 11 11 12 13 13 14 15 15 16 17 17 18 19 19 20 21 22 23 23 24 24 24 24 23 23 23 23 24 24 25 25 25 25 26 27 27 27 26 25 25 26 27 27 27 28 30 32 34 36 37 38 40 41 41 42 42 42 43 43 42 41 40 39
7 7 7 7 7 8 7 7 7 7 7 7 7 7 8 8 8 9 9 10 10 11 11 12 12 13 14 15 15 16 16 17 18 18 19 20 20 21 22 23 23 23 24 24 24 24 24 24 24 24 24 25 25 25 25 26 26 27 27 26 25 26 26 27 28 27 27 29 32 34 35 36 37 39 40 40 40 41 42 42 42 41 39 38 37
Wind_Direction
181 177 174 173 170 167 165 164 163 164 162 161 162 161 159 160 160 161 163 164 165 168 171 175 181 187 192 198 206 215 226 238 250 259 268 275 282 289 294 297 298 298 297 298 299 300 301 303 303 304 305 305 305 305 304 303 303 303 302 299 296 292 291 290 288 289 288 285 287 288 283 284 289 292 294 295 295 294 293 292 291 293 294 294 295
173 170 168 166 165 162 160 159 158 157 155 154 155 155 155 155 156 156 157 158 160 161 164 168 172 176 184 191 197 206 214 223 236 245 254 262 269 276 282 288 293 295 295 295 294 294 294 296 297 298 299 300 302 303 303 303 303 303 305 305 304 303 299 296 293 293 294 293 292 292 291 292 292 293 294 295 296 296 295 295 293 292 292 293 294
167 166 164 162 161 159 157 155 154 153 152 151 151 151 151 150 149 149 150 150 148 148 147 147 147 147 152 158 160 170 180 189 208 223 237 250 259 267 274 282 288 292 296 297 298 299 299 299 299 298 299 298 299 299 299 299 300 301 304 305 306 307 306 305 303 300 298 299 300 299 300 300 299 301 301 299 297 296 295 295 295 294 293 293 293
165 163 162 160 158 156 154 151 149 148 148 147 146 146 145 143 141 140 141 139 137 137 136 132 130 127 125 124 122 120 117 109 104 91 64 6 340 328 316 313 310 310 311 311 311 311 310 311 309 307 305 303 302 302 300 300 300 300 301 303 304 306 308 310 311 311 308 306 307 308 307 306 307 310 310 305 301 299 298 298 298 297 296 295 294
163 161 159 157 153 151 148 145 144 144 144 143 141 141 139 137 135 133 132 131 129 127 125 121 117 113 109 106 99 91 83 74 63 54 45 36 29 20 11 6 358 351 345 339 336 332 328 325 323 320 316 313 311 310 307 306 306 305 305 305 305 305 307 309 311 313 313 311 311 313 313 312 313 314 315 312 308 305 303 301 301 301 300 299 297
159 157 155 151 148 145 143 141 141 141 141 139 137 136 134 133 132 129 126 125 124 120 118 115 111 107 101 94 86 74 66 60 51 46 41 35 32 28 26 23 18 14 9 3 358 352 349 343 338 334 329 326 324 321 318 317 316 315 314 311 310 309 308 309 310 311 312 312 312 313 315 315 313 315 318 316 313 311 309 306 303 303 304 304 302
155 153 150 147 144 142 140 140 140 140 138 137 136 134 133 132 130 128 125 123 122 120 117 114 112 108 98 87 79 69 61 52 45 42 38 36 35 33 33 31 29 27 22 19 16 8 3 358 352 348 343 338 336 332 329 328 326 325 324 321 319 317 315 313 313 312 312 313 313 313 314 315 314 315 318 319 317 316 315 311 307 305 307 309 309
151 149 147 145 142 141 140 140 139 139 138 137 136 135 134 134 132 130 129 127 127 126 121 119 117 109 95 85 74 62 53 42 39 39 35 34 35 34 34 33 32 32 29 26 24 20 16 12 6 2 356 350 346 343 339 335 333 332 330 327 325 323 321 320 318 317 316 315 315 315 315 315 315 316 319 321 318 316 315 313 311 311 310 310 310
148 146 144 141 139 138 138 138 137 137 136 135 135 136 136 136 135 134 135 136 136 134 130 129 127 113 98 92 71 47 36 27 30 33 31 31 31 30 31 31 31 31 30 28 26 24 22 20 17 12 6 2 358 354 349 344 339 338 336 333 330 327 326 325 324 324 322 320 319 318 317 315 315 317 318 318 316 314 315 315 312 311 310 308 307
145 143 141 138 137 137 135 135 135 134 133 134 134 135 137 137 136 137 141 142 143 144 142 142 141 132 120 108 64 30 19 20 27 29 24 23 25 24 24 27 28 28 26 26 25 24 23 21 19 15 11 10 9 4 359 353 348 346 343 340 336 333 331 329 328 328 326 324 323 322 320 317 317 317 315 314 314 314 314 313 310 309 310 309 307
144 142 141 137 136 136 134 134 134 132 131 131 130 130 131 132 132 135 139 140 142 145 147 151 157 156 153 144 64 16 5 12 22 23 18 16 16 18 19 21 23 22 20 20 20 20 19 17 15 12 10 11 10 6 3 0 357 353 349 347 344 341 340 336 333 331 328 325 324 324 322 320 319 318 315 313 313 312 311 310 308 308 310 309 307
144 142 139 137 134 133 132 131 130 129 128 126 125 124 122 120 121 124 128 132 136 141 146 159 175 182 187 200 274 335 345 358 6 6 7 8 6 9 13 14 16 16 14 14 14 13 13 12 11 10 8 6 3 1 360 358 357 356 353 353 352 350 348 342 336 333 330 327 324 324 324 322 320 319 317 315 312 310 309 307 306 305 303 301 300
145 140 135 134 133 129 127 127 127 126 124 122 122 121 118 115 112 111 112 116 121 129 139 165 203 226 231 246 276 292 311 331 342 346 349 351 351 355 1 3 7 10 9 8 7 5 6 7 8 7 4 0 357 355 353 351 352 352 352 352 353 354 351 344 337 333 332 329 326 325 325 323 320 320 320 318 314 311 308 304 302 299 297 296 294
142 138 132 132 133 130 127 128 128 126 124 124 124 123 122 119 113 110 110 106 97 97 105 178 263 278 280 282 286 291 301 313 325 330 332 334 335 338 345 349 353 358 360 360 359 359 0 3 4 4 360 356 353 349 346 345 346 346 347 348 348 350 349 344 339 336 333 330 325 324 325 324 321 320 320 318 316 313 310 306 302 298 295 295 294
142 140 136 135 136 134 132 131 131 129 128 128 129 129 129 128 123 119 116 103 71 42 344 307 293 291 288 285 286 289 298 308 315 316 317 318 321 324 329 332 334 342 348 349 350 351 353 355 357 356 352 349 347 343 341 341 342 341 342 342 342 344 345 342 339 338 336 331 326 324 323 322 321 320 320 320 317 314 311 306 303 300 298 296 294
149 148 146 144 143 142 141 139 137 136 134 133 134 133 132 133 130 127 131 126 93 330 303 298 292 287 283 283 286 290 295 302 305 305 304 305 308 313 316 314 316 324 330 333 336 337 338 342 344 345 344 341 339 338 337 336 337 336 336 337 337 339 340 338 336 337 335 332 328 326 324 323 322 321 321 321 319 317 314 308 305 304 301 297 294
157 156 157 157 156 155 155 153 150 149 146 144 143 141 140 144 144 144 167 204 261 285 291 294 292 288 285 285 287 289 292 294 296 295 294 296 300 303 303 301 302 309 314 316 318 320 322 327 330 332 333 331 330 330 330 329 329 330 331 331 332 333 334 332 331 332 331 330 330 330 328 327 325 323 322 322 320 318 315 312 312 311 303 297 294
165 166 169 173 175 175 175 173 170 169 167 165 163 161 160 165 170 179 202 230 258 273 280 286 288 288 288 288 287 288 289 289 289 289 289 292 295 295 292 293 295 299 304 306 309 312 314 317 320 321 323 323 322 323 323 322 323 325 326 326 327 328 328 326 326 326 326 326 328 329 329 329 329 326 324 322 320 318 314 313 316 314 303 297 295
174 180 186 190 195 198 201 200 198 196 195 193 194 194 192 193 198 206 216 229 245 259 269 276 282 284 285 286 286 286 286 285 285 285 287 289 289 288 287 288 290 292 296 299 302 307 310 313 315 316 317 318 319 319 320 320 321 322 324 324 324 325 325 324 324 325 323 322 323 324 325 327 328 327 326 325 322 320 315 313 315 313 302 297 296
180 189 197 203 208 215 220 222 223 223 221 219 218 217 218 219 224 230 234 240 250 260 267 273 278 281 283 283 283 283 282 281 280 281 282 283 282 282 283 285 286 288 290 293 296 300 304 309 311 311 312 314 315 316 317 319 319 320 323 324 323 324 324 323 323 324 322 320 321 321 321 323 325 326 328 328 326 324 319 315 313 311 305 298 295
179 187 197 206 214 222 227 231 234 235 235 234 233 232 233 236 240 244 247 252 259 264 269 273 277 280 281 281 281 280 278 277 278 278 278 278 278 279 280 281 284 285 286 289 292 295 299 303 305 306 307 309 310 311 312 314 315 317 321 323 323 324 324 323 322 322 320 319 319 320 320 320 321 323 326 328 328 326 323 318 316 314 310 304 298
181 191 200 211 221 229 232 235 237 238 240 241 241 242 245 247 250 253 256 259 263 266 269 273 276 278 279 279 278 277 276 275 277 277 277 277 278 279 280 282 283 284 285 287 289 292 295 298 300 301 302 303 304 306 307 309 311 313 316 318 319 320 321 321 321 320 319 319 319 319 320 320 320 320 322 325 326 325 323 319 316 314 311 308 302
189 203 214 223 229 234 237 238 240 241 243 244 246 249 253 256 258 261 264 265 267 269 271 273 274 276 276 275 275 275 275 276 277 278 278 279 280 281 283 285 284 284 286 288 289 291 293 294 296 296 297 299 301 303 305 307 309 310 312 314 316 317 318 317 318 317 317 318 318 318 319 320 319 319 320 321 322 322 320 318 315 313 311 309 305
184 196 211 222 227 230 232 235 238 241 243 246 249 251 254 257 259 262 265 267 268 270 272 272 274 275 274 273 273 273 274 276 277 277 277 279 281 282 284 285 285 285 287 289 290 291 292 293 294 295 296 299 301 302 305 307 308 309 311 314 315 316 316 316 316 316 316 316 316 316 316 317 318 318 318 319 319 318 317 316 314 313 311 310 308
169 175 185 194 207 220 225 229 234 239 243 247 251 253 255 258 260 261 264 267 268 270 270 270 272 272 271 272 272 272 273 275 276 277 277 278 279 281 282 283 284 285 287 288 289 290 292 294 296 297 299 301 302 304 305 308 310 312 314 315 316 316 316 317 317 317 316 316 316 315 315 315 316 316 316 316 316 316 317 316 314 312 312 310 309
167 171 174 174 183 202 220 232 238 242 248 252 257 260 260 261 262 264 267 269 269 269 269 269 269 270 270 270 271 272 274 276 276 276 276 277 278 279 280 282 283 284 285 287 288 289 293 296 297 299 302 303 305 306 307 309 312 314 315 316 316 316 317 318 318 318 318 317 317 316 315 315 314 314 314 314 314 314 316 317 315 313 313 312 310
158 163 168 174 187 202 216 232 243 248 253 257 261 265 268 269 270 273 274 274 271 270 269 269 269 270 271 272 273 275 277 278 277 276 276 277 277 277 279 280 281 283 284 286 288 291 296 298 299 301 303 304 305 306 307 309 312 313 314 314 314 315 316 318 319 319 319 318 317 316 315 314 314 313 313 313 313 313 315 316 314 312 313 313 311
134 139 151 178 210 226 231 237 244 249 253 257 261 264 267 270 272 274 274 273 272 272 271 271 272 274 277 279 279 279 279 279 278 278 279 279 278 279 281 282 283 286 288 289 292 296 299 300 301 303 303 303 304 305 307 309 310 311 311 311 312 313 316 318 319 320 320 319 318 316 316 316 316 316 316 315 313 313 314 314 312 310 311 312 310
121 134 150 180 215 239 248 252 254 256 258 261 264 265 265 265 265 267 267 268 270 271 272 274 277 279 280 281 281 281 282 282 282 282 282 283 284 285 286 288 291 294 294 295 298 301 301 302 303 304 304 305 307 309 311 312 311 311 311 312 314 316 318 320 322 322 322 322 321 320 320 319 318 317 317 315 314 314 314 312 310 310 312 311 307
117 138 163 195 217 232 243 251 257 260 261 263 264 265 265 263 261 260 261 263 265 268 271 275 279 280 280 281 282 285 286 285 284 284 284 286 287 288 290 294 297 296 295 297 299 300 300 302 303 305 306 309 311 312 313 312 312 312 313 314 316 318 320 322 324 324 325 326 325 324 323 321 319 317 316 315 314 313 313 312 311 312 311 309 307
91 110 168 220 233 238 243 246 249 253 255 256 258 260 262 263 261 260 260 260 262 265 271 275 278 279 280 280 281 283 284 284 284 285 285 285 286 287 290 294 294 293 294 297 299 299 299 301 303 306 308 311 312 312 311 311 311 312 313 315 317 319 321 323 324 325 326 327 326 326 325 323 320 317 316 315 315 314 314 314 311 306 302 303 306
25 15 313 274 260 254 253 252 250 250 250 249 251 253 255 257 258 257 257 258 260 264 268 271 273 275 278 280 280 279 279 281 282 283 284 284 284 287 290 291 290 290 293 296 297 298 300 302 304 307 309 310 310 309 309 309 310 311 313 314 316 319 320 322 323 323 325 325 325 325 324 323 320 318 316 316 316 316 316 311 304 300 301 305 307
347 330 306 293 279 267 262 259 255 254 252 249 248 248 249 251 253 253 254 256 258 261 264 265 268 271 274 277 279 279 279 279 281 282 283 283 285 288 291 290 289 290 293 294 295 297 300 302 304 306 307 308 308 308 308 308 310 311 313 314 316 317 319 321 321 322 322 323 323 323 322 322 320 318 317 317 317 316 311 305 302 303 306 308 308
334 318 304 296 287 277 270 263 258 255 253 250 247 244 243 244 247 250 253 256 258 260 263 264 267 271 273 276 278 280 282 282 281 281 282 283 286 290 291 291 292 294 295 296 297 298 300 301 303 305 306 307 307 308 308 309 310 311 312 314 316 317 319 321 321 321 322 322 322 322 321 320 320 319 318 318 317 315 311 307 306 306 306 307 308
321 307 297 291 283 276 269 263 257 253 250 248 246 243 240 239 239 242 247 252 255 258 260 263 265 268 272 275 277 279 281 282 283 284 285 286 288 289 291 293 295 296 297 297 298 299 300 302 305 307 308 308 309 309 308 309 310 312 314 316 317 319 321 322 322 323 323 322 322 322 320 319 319 319 319 318 318 316 314 311 310 309 308 309 310
315 302 291 283 276 270 265 260 256 252 248 246 244 242 240 239 238 240 243 246 250 253 256 259 263 265 267 271 274 277 280 283 285 287 288 290 293 294 295 296 296 295 295 296 297 300 303 305 308 310 310 310 310 310 310 311 312 314 316 318 319 320 322 323 324 324 323 322 321 321 320 319 319 319 319 319 318 317 316 314 312 311 310 310 311
305 295 286 279 272 267 262 258 255 252 248 245 243 241 240 239 239 241 242 246 251 255 258 262 266 270 271 272 274 277 280 282 285 289 292 296 299 302 302 301 300 299 299 300 300 303 306 307 309 311 310 310 311 311 312 313 314 315 317 318 319 320 321 322 323 323 323 322 321 321 320 319 319 320 320 319 318 318 317 316 315 312 311 311 312
296 290 284 277 270 264 259 255 252 249 245 244 242 241 241 240 240 242 245 247 251 256 261 265 270 274 276 277 277 278 280 282 285 291 294 296 298 300 301 301 303 304 305 305 305 307 309 310 311 311 311 311 312 312 313 314 314 314 316 316 317 319 321 322 324 324 323 322 321 320 320 320 320 321 320 319 319 319 318 318 318 316 314 313 313
291 282 276 272 267 262 257 252 248 244 241 239 238 237 239 241 241 244 249 253 257 261 265 269 273 276 280 284 286 288 289 290 292 294 295 297 300 302 304 306 308 309 309 309 309 310 311 312 313 313 313 313 312 312 312 313 313 313 314 315 317 319 321 322 323 323 323 321 320 320 320 321 321 320 320 319 320 320 319 318 318 318 316 314 313
291 277 268 266 260 256 251 245 242 239 236 234 234 234 234 238 243 248 252 259 266 271 276 281 286 291 294 296 299 301 303 306 308 309 309 311 312 312 313 313 313 313 312 312 311 311 312 313 313 313 313 312 312 312 312 313 313 313 314 315 316 317 319 321 322 322 321 320 320 320 321 321 321 319 319 319 319 319 320 319 318 318 317 315 314
277 265 258 254 248 242 239 235 234 234 234 234 235 236 235 240 247 254 264 276 284 291 298 302 306 311 312 313 314 314 315 317 317 318 318 319 318 318 317 316 316 315 314 313 312 311 311 311 311 311 312 312 312 312 312 313 313 313 313 314 315 315 317 319 320 320 320 319 319 320 320 320 319 318 317 318 320 321 321 320 318 318 318 317 316
264 255 247 243 240 235 231 230 228 229 232 237 244 248 252 259 265 272 286 301 306 309 313 314 317 320 322 322 323 322 321 320 319 319 319 318 317 317 317 316 315 315 314 313 312 311 310 311 311 311 311 311 311 311 312 312 312 312 312 313 313 314 316 318 318 319 319 318 318 319 319 318 318 317 318 320 321 321 320 319 319 320 319 317 316
250 240 234 233 233 233 231 231 232 234 240 250 261 267 276 289 294 298 306 311 314 318 320 321 324 326 327 327 326 325 323 322 320 318 317 316 315 314 314 313 313 313 313 312 312 310 309 309 309 309 309 309 309 309 310 311 311 311 311 311 311 312 314 316 316 317 317 316 317 317 317 316 317 318 319 320 320 320 320 320 320 320 318 316 315
238 228 223 221 225 230 236 243 249 258 271 280 283 297 316 319 316 319 322 323 324 326 327 328 330 330 330 329 329 327 325 324 323 322 320 319 317 315 314 313 312 311 310 310 310 309 308 307 307 306 306 306 306 306 307 308 308 308 309 309 309 310 312 314 314 315 315 315 315 315 315 316 318 317 317 318 319 320 320 320 319 318 316 315 314
274 272 259 259 268 265 268 279 286 292 304 309 316 328 334 331 331 331 328 326 327 328 330 332 333 332 331 331 330 330 329 328 328 327 325 323 322 320 319 317 315 313 312 311 310 309 308 306 306 305 305 305 305 305 305 305 306 306 306 306 307 308 311 312 312 313 313 313 313 313 315 315 315 314 315 317 319 320 319 318 317 317 315 314 313
297 301 302 308 307 301 297 302 305 308 316 321 325 330 331 330 330 327 323 324 327 329 331 334 334 333 333 332 331 332 332 331 330 330 328 327 326 324 322 320 319 317 316 314 312 310 309 308 307 306 306 306 306 305 305 305 305 305 305 305 305 307 308 309 310 310 310 311 312 313 313 312 311 312 315 317 318 318 317 317 317 316 315 314 312
291 293 296 296 293 291 293 295 297 302 308 311 315 319 321 321 321 321 321 324 327 328 330 332 331 331 331 331 330 331 331 330 330 330 329 328 326 325 323 321 320 319 318 317 315 313 311 309 308 307 306 306 307 306 306 306 306 305 305 305 305 306 307 308 307 308 309 311 311 310 309 309 310 312 315 316 317 317 316 316 316 315 315 314 312
291 291 290 291 290 287 287 289 290 294 298 301 304 307 308 310 313 316 318 320 323 324 325 326 327 327 328 329 330 331 330 330 330 329 328 327 325 324 322 321 320 319 319 318 316 315 313 311 309 308 307 307 306 306 306 307 307 307 306 306 306 306 306 306 306 308 309 310 308 307 307 309 310 312 314 315 316 317 316 315 316 316 315 313 311
291 290 288 289 289 288 286 287 289 290 293 298 301 303 306 308 311 314 315 317 318 320 321 323 324 326 328 328 329 330 330 329 328 328 327 326 324 322 321 321 319 319 318 318 317 316 314 312 311 309 308 307 307 307 307 308 308 308 307 307 306 306 304 303 305 306 307 306 305 305 307 308 310 311 313 315 316 316 315 315 317 317 315 313 312
287 289 288 289 289 289 288 289 290 292 295 299 301 303 306 308 309 311 314 315 316 318 321 323 325 326 327 328 329 329 329 328 327 326 326 324 323 321 320 319 318 317 317 317 317 317 316 314 313 311 310 309 309 308 309 309 309 308 308 308 307 306 304 303 304 304 304 304 304 305 307 308 310 311 313 314 315 316 316 317 318 317 315 313 312
286 287 288 288 288 288 288 289 291 293 295 298 299 301 303 305 307 310 312 314 316 318 321 324 325 326 327 328 328 328 328 327 326 325 324 323 323 322 320 319 318 317 317 316 317 317 317 316 315 313 312 311 311 311 311 310 310 308 308 308 308 306 304 304 304 304 305 305 304 305 307 309 310 311 312 314 316 317 317 317 318 318 317 315 315